Regional Weather Roundup
Issued by NWS

Home | Current Version | Previous Version | Graphics & Text | Print | Product List | Glossary On
Versions: 1 2 3 4 5 6 7 8 9 10 11 12 13 14 15 16 17 18 19 20 21 22 23 24 25 26 27 28 29 30 31 32 33 34 35 36 37 38 39 40 41 42 43 44 45 46 47 48 49 50
000
ASUS45 KBOU 041807
RWRCO

WEATHER ROUNDUP FOR COLORADO
NATIONAL WEATHER SERVICE DENVER/BOULDER CO
1100 AM MST WED MAR 04 2015

NOTE: "FAIR" INDICATES FEW OR NO CLOUDS BELOW 12000 FEET WITH NO
SIGNIFICANT WEATHER AND/OR OBSTRUCTIONS TO VISIBILITY.

COZ001>005-013-030-031-041900-
...NORTHWEST COLORADO...

CITY           SKY/WX    TMP DP  RH WIND       PRES   REMARKS
CRAIG          LGT SNOW  15  10  80 CALM      30.10R
HAYDEN         CLOUDY    12   9  85 W5        30.06S VSB 1   WCI   4
MEEKER         CLOUDY    22  11  62 CALM      30.06R
MOUNT WERNER   NOT AVBL
STEAMBOAT SPGS CLOUDY    16   9  73 CALM      30.03S
WALDEN         CLOUDY    12   3  67 W3        29.94S
$$

COZ006>008-011-041900-
...WEST CENTRAL VALLEYS...

CITY           SKY/WX    TMP DP  RH WIND       PRES   REMARKS
GRAND JUNCTION SUNNY     33  14  45 NW6       30.10R WCI  28
MONTROSE       MOSUNNY   32  14  47 NE8       30.08S WCI  25
EAGLE          PTSUNNY   25  12  58 CALM      30.04F
RIFLE          CLOUDY    30   3  31 CALM      30.07F
DELTA          SUNNY     35  22  58 CALM      30.08S
NUCLA          SUNNY     32  18  55 CALM      30.10S
$$

COZ017>023-064>068-041900-
...SOUTHWEST COLORADO...

CITY           SKY/WX    TMP DP  RH WIND       PRES   REMARKS
DURANGO        SUNNY     33  18  53 W13       29.95S WCI  24
CORTEZ         SUNNY     33  19  56 NW9       30.03R WCI  25
PAGOSA SPRINGS MOSUNNY   29  24  81 S5        29.95R WCI  23
TELLURIDE      CLOUDY    20  14  75 W15       29.97R WCI   7
WOLF CREEK PAS CLOUDY    10   9  92 MISG      29.89R
$$

COZ009-010-012-014-032>034-037-058>063-041900-
...CENTRAL COLORADO...

CITY           SKY/WX    TMP DP  RH WIND       PRES   REMARKS
ASPEN          MOSUNNY   22   6  50 N8        29.97S WCI  12
BUENA VISTA    CLOUDY    24  10  56 S5        29.92S WCI  18
COPPER MTN     NOT AVBL
BERTHOUD PASS  SNOW      -4  -9  77 NW32G41   29.72  VSB 1/2 WCI -32
COTTONWOOD PAS CLOUDY    23   5  46 CALM      29.87S
GUNNISON       PTSUNNY   21  12  68 NE5       29.99S WCI  15
KREMMLING      CLOUDY    25   9  50 W6        29.99S WCI  18
LEADVILLE      CLOUDY    12  -1  56 N12       29.86R WCI  -2
SALIDA         CLOUDY    19  13  76 SE16G24   30.02S WCI   4
SUNLIGHT       PTSUNNY   10   5  79 NW3         N/A
WILKERSON PASS PTSUNNY    9   3  78 W3        29.83F
$$

COZ069>075-041900-
...SAN LUIS VALLEY/SANGRE DE CRISTO MOUNTAINS...

CITY           SKY/WX    TMP DP  RH WIND       PRES   REMARKS
ALAMOSA        CLOUDY    31  16  54 CALM      29.90S
LA VETA PASS   SNOW      10   3  72 MISG      29.87S VSB 1/2
SAGUACHE       MOSUNNY   28  12  50 NW17G23   29.91S WCI  16
$$

COZ035-036-038>040-041900-
...NORTHERN COLORADO FRONT RANGE...

CITY           SKY/WX    TMP DP  RH WIND       PRES   REMARKS
DENVER INTL AP MOSUNNY   13   7  77 E10       30.13S WCI   0
DMNS CITY PARK   N/A     16   7  69 E7G13     30.12S WCI   6
AURORA         MOSUNNY   13   5  71 E7        30.11F WCI   3
FRONT RANGE AP NOT AVBL
ERIE MUNI ARPT MOSUNNY   18  10  71 E8        30.14F WCI   7
BOULDER MUN AP FLURRIES  21  10  63 E6        30.13S WCI  14
CENTENNIAL     MOSUNNY   13   6  74 E6        30.09F WCI   4
BROOMFIELD     PTSUNNY   16   9  73 VRB5      30.11S WCI   9
FORT COLLINS   MOSUNNY   16   9  73 S7        30.18R WCI   6
LONGMONT       CLOUDY    26   9  47 E7        30.17S WCI  19
$$

COZ041-046-047-076>085-087-088-041900-
...PIKES PEAK/PALMER DIVIDE AND SOUTHERN FOOTHILLS...

CITY           SKY/WX    TMP DP  RH WIND       PRES   REMARKS
COLO. SPRINGS  MOSUNNY   13   6  74 SE12      30.09F WCI  -1
A. F. ACADEMY  PTSUNNY   16   5  61 S14       30.03F WCI   2
ELLICOTT       NOT AVBL
FALCON         FLURRIES  14   4  64 E5        30.05S WCI   6
FORT CARSON    LGT SNOW  13   8  80 SE10      30.10F VSB 1   WCI   0
LIMON          CLOUDY    13   5  70 N7        30.14F WCI   3
MONUMENT HILL  CLOUDY    14   3  62 SE5       30.01S WCI   6
TRINIDAD       LGT SNOW  15  11  83 NE14      30.12R VSB 1   WCI   0
$$

COZ042>045-048>051-090-091-041900-
...NORTHEAST COLORADO...

CITY           SKY/WX    TMP DP  RH WIND       PRES   REMARKS
GREELEY ARPT   SUNNY     21   3  45 S7        30.17S WCI  13
AKRON          SUNNY     18   2  49 NW7       30.17S WCI   9
BURLINGTON     MOSUNNY   20   5  52 N8        30.20F WCI  10
WRAY           SUNNY     26   7  45 NW10      30.23S WCI  16
STERLING       MOSUNNY   23   3  42 NW7       30.20S WCI  15
HOLYOKE        NOT AVBL
FORT MORGAN    SUNNY     22   8  55 W6        30.19S WCI  14
$$

COZ086-089-092>099-041900-
...SOUTHEAST COLORADO...

CITY           SKY/WX    TMP DP  RH WIND       PRES   REMARKS
PUEBLO         CLOUDY    18  12  77 NE7       30.20S WCI   9
LA JUNTA       CLOUDY    22  15  75 NE14      30.22S WCI   9
LAMAR          LGT SNOW  22  14  71 NE14      30.24R WCI   9
SPRINGFIELD      N/A     18  14  84 NE15      30.19R WCI   4
$$


USA.gov is the U.S. government's official web portal to all federal, state and local government web resources and services.